Tracking 20092 objects as of 14-Dec-2019
HD Live streaming from Space Station
objects crossing your sky now

DELTA 1 DEB

Track DELTA 1 DEB now!
10-day predictions


NORAD ID: 12234
Int'l Code: 1978-026CB
Perigee: 869.8 km
Apogee: 911.1 km
Inclination: 99.0 °
Period: 102.6 minutes
Semi major axis: 7261 km
RCS: 0.0288 m2 (small)
Launch date: March 5, 1978
Source: United States (US)
Launch site: AIR FORCE WESTERN TEST RANGE (AFWTR)

Note: This is SATELLITE DEBRIS
aabbcc
Your satellite tracking list
Your tracking list is empty




NASA's NSSDC Master Catalog

Two Line Element Set (TLE):
1 12234U 78026CB  19347.84183931  .00000167  00000-0  13562-3 0  9990
2 12234  99.0224 308.0435 0028471 192.5188 197.3236 14.03027617988703
Source of the keplerian elements: AFSPC